Location: Tel Aviv
(32.0670°N, 34.7670°E)
Time: 02:42:52
(UTC+02:00)

Transit 4A - Pass Details

Date: 09 December 2023
Orbit: 869 x 974 km, 66.8° (Epoch: 23 February)

Event Time Altitude Azimuth Distance (km) Brightness Sun altitude
Exits shadow 05:39:59 13° 288° (WNW) 2,346 9.3 -10.5°
Maximum altitude 05:42:48 18° 256° (WSW) 2,036 9.2 -9.9°
Drops below altitude 10° 05:46:36 10° 215° (SW) 2,528 10.0 -9.2°
Sets 05:49:51 0° 197° (SSW) 3,450 10.9 -8.5°
